Weather in Bogdanovich

Russia / Sverdlovsk Oblast     56°46′35″N   62°02′46″E
temp.,
°C
wind,
m/s
gust,
m/s
humid.,
%
clouds,
%
prec.,
mm/h
press.,
hPa
HPBL,
m
5 august, thu
thu523:00+18ese499348 0.4 1012188
02:00+19s34855 0.0 101067
05:00+17nw228810 0.0 101015
08:00+23sw117033 0.0 1009165
11:00+29s2249100 0.0 1008622
14:00+32wsw3438100 0.0 10081551
17:00+33ssw24335 0.0 10062396
20:00+24wnw47615 0.3 1006108
6 august, fri
fri623:00+21wnw5107898 0.4 1007258
02:00+18nw499591 3.0 1007284
05:00+16nw489742 3.1 1007347
08:00+17wnw578367 0.0 1008589
11:00+19wnw6769100 0.0 1009932
14:00+19nw6770100 0.0 10091077
17:00+18nw6876100 0.1 1010605
20:00+17nnw61190100 0.5 1010594
7 august, sat
sat723:00+16nw51190100 0.6 1010428
02:00+15nw6118889 0.1 1011439
05:00+15nw5118773 0.1 1011332
08:00+15nw597731 0.0 1012365
11:00+20nw67440 0.0 10111158
14:00+23nw78360 0.0 10111712
17:00+23nnw68381 0.0 10112030
20:00+18nnw8126698 0.1 1012633
8 august, sun
sun823:00+14nw511780 0.2 1013394
02:00+13nw51080100 0.0 1013343
05:00+11nw611881 0.0 1014318
08:00+13nw71276100 0.0 1014456
11:00+17nnw7106268 0.0 1014808
14:00+17nnw7106472 0.0 1015767
17:00+19n61062100 0.0 1016844
20:00+17nnw4107269 0.0 1016360
9 august, mon
mon923:00+15nw48811 0.0 1017137
02:00+14nw49882 0.0 1017172
05:00+12nw48957 0.0 1018163
08:00+17nnw45776 0.0 1018320
11:00+21nw4461100 0.0 1018972
14:00+24nw444949 0.0 10171536
17:00+25nnw454374 0.0 10171747
20:00+20nnw355762 0.0 101770